Location: Hylvaty SDH
(49.9612°N, 16.4057°E)
Time: 19:08:25
(UTC+02:00)

Transit 4A - Pass Details

Date: 12 August 2020
Orbit: 862 x 982 km, 66.8° (Epoch: 28 September)

Event Time Altitude Azimuth Distance (km) Brightness Sun altitude
Rises 09:31:34 0° 197° (SSW) 3,483 10.9 35.4°
Reaches altitude 10° 09:34:03 10° 193° (SSW) 2,563 10.4 35.7°
Maximum altitude 09:39:49 54° 118° (ESE) 1,104 10.2 36.6°
Drops below altitude 10° 09:45:49 10° 43° (NE) 2,661 10.6 37.5°
Sets 09:48:27 0° 39° (NE) 3,627 11.1 37.9°
